Latest Weather Observations for Mount Nowa Nowa

IDV60801

Issued at 8:35 pm EDT Saturday 29 November 2014 (issued every 30 minutes, with the page automatically refreshed every 10 minutes)

About weather observations | Map of weather stations | Latest weather observations for VIC | Other Formats
Station Details ID: 084144 Name: MOUNT NOWA NOWA Lat: -37.69 Lon: 148.09 Height: 350.0 m
Data from the previous 72 hours. | See also: Recent months at Mount Nowa Nowa
Date/Time
EDT
Temp
°C
App
Temp
°C
Dew
Point
Rel
Hum
%
Delta-T
°C
Wind Press
QNH
hPa
Press
MSL
hPa
Rain
since 9 am
mm
Dir
 
Spd
km/h
Gust
km/h
Spd
kts
Gust
kts
29/08:30pm 17.1 17.7 11.8 71 2.9 CALM 0 2 0 1 - - 0.0
29/08:00pm 17.4 17.1 12.7 74 2.7 S 6 9 3 5 - - 0.0
29/07:30pm 18.2 18.2 12.4 69 3.3 SSE 4 7 2 4 - - 0.0
29/07:00pm 19.3 19.3 12.3 64 4.0 SE 4 7 2 4 - - 0.0
29/06:30pm 20.2 20.7 12.7 62 4.3 ESE 2 7 1 4 - - 0.0
29/06:00pm 20.1 19.6 12.1 60 4.5 ESE 6 11 3 6 - - 0.0
29/05:30pm 20.3 19.2 9.8 51 5.7 ESE 6 17 3 9 - - 0.0
29/05:00pm 21.2 20.4 11.0 52 5.7 SE 6 13 3 7 - - 0.0
29/04:30pm 22.6 22.2 12.3 52 5.9 SE 6 11 3 6 - - 0.0
29/04:00pm 22.8 22.4 12.4 52 6.0 SE 6 15 3 8 - - 0.0
29/03:30pm 22.4 21.8 12.4 53 5.8 SE 7 17 4 9 - - 0.0
29/03:00pm 22.3 21.7 13.4 57 5.2 SE 9 17 5 9 - - 0.0
29/02:30pm 22.5 21.8 13.3 56 5.4 SE 9 22 5 12 - - 0.0
29/02:00pm 22.9 22.9 14.2 58 5.2 SE 7 15 4 8 - - 0.0
29/01:30pm 22.0 21.4 13.4 58 5.0 SSE 9 19 5 10 - - 0.0
29/01:00pm 22.2 22.1 13.8 59 5.0 SE 7 17 4 9 - - 0.0
29/12:30pm 23.4 23.5 12.7 51 6.2 SE 4 7 2 4 - - 0.0
29/12:00pm 21.5 21.0 12.1 55 5.4 S 6 11 3 6 - - 0.0
29/11:30am 21.3 21.6 12.2 56 5.2 SSW 2 6 1 3 - - 0.0
29/11:00am 19.9 19.7 11.7 59 4.6 S 4 7 2 4 - - 0.0
29/10:30am 18.9 18.5 11.0 60 4.4 SSW 4 7 2 4 - - 0.0
29/10:00am 18.0 17.9 10.9 63 3.9 WNW 2 6 1 3 - - 0.0
29/09:30am 16.1 15.7 11.1 72 2.7 NW 4 6 2 3 - - 0.0
29/09:00am 15.2 14.7 10.8 75 2.4 WSW 4 7 2 4 - - 0.0
29/08:30am 14.4 14.6 10.4 77 2.1 CALM 0 2 0 1 - - 0.0
29/08:00am 14.3 14.4 10.1 76 2.2 CALM 0 0 0 0 - - 0.0
29/07:30am 12.6 11.9 10.1 85 1.3 N 4 4 2 2 - - 0.0
29/07:00am 13.8 13.8 12.4 91 0.8 ESE 4 6 2 3 - - 0.0
29/06:30am 12.4 12.1 11.6 95 0.4 ESE 4 7 2 4 - - 0.0
29/06:00am 12.0 11.9 10.9 93 0.6 ESE 2 4 1 2 - - 0.0
29/05:30am 12.2 11.1 10.8 91 0.7 ESE 7 11 4 6 - - 0.0
29/05:00am 12.9 11.4 8.6 75 2.2 E 6 9 3 5 - - 0.0
29/04:30am 13.4 12.2 8.0 70 2.7 ENE 4 6 2 3 - - 0.0
29/04:00am 12.8 11.3 8.5 75 2.2 ENE 6 9 3 5 - - 0.0
29/03:30am 13.0 11.4 8.7 75 2.2 NNE 7 15 4 8 - - 0.0
29/03:00am 13.1 11.5 8.8 75 2.2 NNE 7 17 4 9 - - 0.0
29/02:30am 13.1 11.6 8.4 73 2.4 ENE 6 9 3 5 - - 0.0
29/02:00am 13.0 11.4 8.1 72 2.5 NE 6 9 3 5 - - 0.0
29/01:30am 13.4 11.9 8.3 71 2.6 N 6 13 3 7 - - 0.0
29/01:00am 13.7 11.9 8.1 69 2.8 N 7 15 4 8 - - 0.0
29/12:30am 13.9 12.5 8.7 71 2.7 N 6 9 3 5 - - 0.0
29/12:00am 14.4 13.8 8.8 69 2.9 NNE 2 7 1 4 - - 0.0
 
Date/Time
EDT
Temp
°C
App
Temp
°C
Dew
Point
Rel
Hum
%
Delta-T
°C
Wind Press
QNH
hPa
Press
MSL
hPa
Rain
since 9 am
mm
Dir
 
Spd
km/h
Gust
km/h
Spd
kts
Gust
kts
28/11:30pm 14.3 12.9 7.1 62 3.6 E 4 6 2 3 - - 0.0
28/11:00pm 14.1 12.5 7.9 66 3.1 E 6 7 3 4 - - 0.0
28/10:30pm 13.4 12.1 9.1 75 2.2 E 6 11 3 6 - - 0.0
28/10:00pm 13.3 12.1 9.7 79 1.9 E 6 7 3 4 - - 0.0
28/09:30pm 13.4 12.4 10.4 82 1.6 E 6 7 3 4 - - 0.0
28/09:00pm 13.4 12.2 10.4 82 1.6 ESE 7 7 4 4 - - 0.0
28/08:30pm 13.6 12.5 10.0 79 1.9 E 6 7 3 4 - - 0.0
28/08:00pm 14.4 13.6 9.8 74 2.4 SE 4 9 2 5 - - 0.0
28/07:30pm 15.4 14.4 8.9 65 3.4 SE 4 7 2 4 - - 0.0
28/07:00pm 16.8 16.0 9.5 62 3.9 SE 4 6 2 3 - - 0.0
28/06:30pm 18.2 16.9 9.3 56 4.7 SE 6 9 3 5 - - 0.0
28/06:00pm 18.3 17.2 8.3 52 5.2 SE 4 9 2 5 - - 0.0
28/05:30pm 18.7 17.7 8.9 53 5.2 ESE 4 9 2 5 - - 0.0
28/05:00pm 18.8 17.4 9.0 53 5.2 SE 6 9 3 5 - - 0.0
28/04:30pm 18.3 16.3 8.8 54 5.0 SSE 9 17 5 9 - - 0.0
28/04:00pm 18.0 16.0 10.1 60 4.3 SSE 11 22 6 12 - - 0.0
28/03:30pm 18.4 16.7 9.7 57 4.7 SSE 9 20 5 11 - - 0.0
28/03:00pm 19.5 18.1 11.0 58 4.7 SSE 9 20 5 11 - - 0.0
28/02:30pm 20.7 19.9 11.6 56 5.1 SE 7 15 4 8 - - 0.0
28/02:00pm 20.8 20.3 12.2 58 4.9 ESE 6 13 3 7 - - 0.0
28/01:30pm 19.5 18.6 11.3 59 4.6 SSE 7 13 4 7 - - 0.0
28/01:00pm 18.9 17.7 11.5 62 4.1 SSE 9 22 5 12 - - 0.0
28/12:30pm 19.3 18.9 11.1 59 4.5 SE 4 11 2 6 - - 0.0
28/12:00pm 18.5 17.4 10.8 61 4.2 ESE 7 11 4 6 - - 0.0
28/11:30am 18.3 17.6 10.2 59 4.4 E 4 13 2 7 - - 0.0
28/11:00am 17.3 16.6 10.0 62 3.9 SE 4 13 2 7 - - 0.0
28/10:30am 17.1 16.3 9.8 62 3.9 E 4 7 2 4 - - 0.0
28/10:00am 15.4 14.5 9.1 66 3.3 WSW 4 9 2 5 - - 0.0
28/09:30am 14.6 14.2 9.8 73 2.5 W 2 6 1 3 - - 0.0
28/09:00am 12.7 12.1 8.8 77 2.0 WNW 2 4 1 2 - - 0.0
28/08:30am 13.8 12.8 8.8 72 2.6 E 4 7 2 4 - - 0.0
28/08:00am 12.6 11.5 8.5 76 2.1 ESE 4 9 2 5 - - 0.0
28/07:30am 11.2 10.4 8.2 82 1.5 N 2 4 1 2 - - 0.0
28/07:00am 11.3 10.5 8.0 80 1.6 E 2 6 1 3 - - 0.0
28/06:30am 9.9 8.6 7.7 86 1.1 ENE 4 4 2 2 - - 0.0
28/06:00am 9.4 8.5 7.7 89 0.8 NNE 2 6 1 3 - - 0.0
28/05:30am 9.1 7.8 7.7 91 0.7 ENE 4 6 2 3 - - 0.0
28/05:00am 9.3 8.4 7.7 90 0.8 E 2 6 1 3 - - 0.0
28/04:30am 9.3 8.5 8.1 92 0.6 E 2 4 1 2 - - 0.0
28/04:00am 9.2 8.4 8.1 93 0.5 NE 2 6 1 3 - - 0.0
28/03:30am 9.4 7.9 8.5 94 0.4 E 6 9 3 5 - - 0.0
28/03:00am 9.5 7.9 8.7 95 0.4 E 7 11 4 6 - - 0.0
28/02:30am 9.5 7.9 8.7 95 0.4 E 7 11 4 6 - - 0.0
28/02:00am 9.6 8.0 8.8 95 0.4 E 7 9 4 5 - - 0.0
28/01:30am 9.6 8.0 8.8 95 0.4 E 7 9 4 5 - - 0.0
28/01:00am 9.6 8.1 8.5 93 0.5 E 6 7 3 4 - - 0.0
28/12:30am 9.8 8.3 8.6 92 0.6 E 6 7 3 4 - - 0.0
28/12:00am 9.7 8.0 8.3 91 0.7 E 7 9 4 5 - - 0.0
 
Date/Time
EDT
Temp
°C
App
Temp
°C
Dew
Point
Rel
Hum
%
Delta-T
°C
Wind Press
QNH
hPa
Press
MSL
hPa
Rain
since 9 am
mm
Dir
 
Spd
km/h
Gust
km/h
Spd
kts
Gust
kts
27/11:30pm 9.6 8.1 8.5 93 0.5 E 6 7 3 4 - - 0.0
27/11:00pm 9.7 8.2 8.6 93 0.5 E 6 9 3 5 - - 0.0
27/10:30pm 9.8 8.3 8.6 92 0.6 E 6 9 3 5 - - 0.0
27/10:00pm 9.8 8.3 8.6 92 0.6 E 6 7 3 4 - - 0.0
27/09:30pm 10.0 8.3 8.4 90 0.8 ESE 7 9 4 5 - - 0.0
27/09:00pm 10.3 8.8 8.6 89 0.8 ESE 6 9 3 5 - - 0.0
27/08:30pm 10.7 9.6 8.3 85 1.2 SE 4 9 2 5 - - 0.0
27/08:00pm 11.4 10.2 8.1 80 1.6 SE 4 7 2 4 - - 0.0
27/07:30pm 12.3 10.7 8.0 75 2.2 SSE 6 11 3 6 - - 0.0
27/07:00pm 13.4 11.9 8.3 71 2.6 SSE 6 11 3 6 - - 0.0
27/06:30pm 14.5 12.9 8.2 66 3.2 SSE 6 13 3 7 - - 0.0
27/06:00pm 14.9 13.3 8.2 64 3.4 SSE 6 11 3 6 - - 0.0
27/05:30pm 15.7 14.0 8.4 62 3.8 SSE 7 15 4 8 - - 0.0
27/05:00pm 16.8 15.3 9.2 61 4.0 S 7 13 4 7 - - 0.0
27/04:30pm 16.6 15.1 9.1 61 3.9 SSE 7 15 4 8 - - 0.0
27/04:00pm 16.5 14.6 9.2 62 3.8 SSE 9 17 5 9 - - 0.0
27/03:30pm 17.1 15.7 9.5 61 4.0 S 7 17 4 9 - - 0.0
27/03:00pm 17.5 16.1 9.4 59 4.3 S 7 15 4 8 - - 0.0
27/02:30pm 17.3 15.4 9.0 58 4.4 S 9 17 5 9 - - 0.0
27/02:00pm 16.8 14.9 9.0 60 4.1 S 9 17 5 9 - - 0.0
27/01:30pm 18.4 16.6 7.8 50 5.5 W 7 15 4 8 - - 0.0
27/01:00pm 17.1 14.7 7.2 52 5.0 SSW 9 17 5 9 - - 0.0
27/12:30pm 17.1 15.0 6.6 50 5.3 WSW 7 15 4 8 - - 0.0
27/12:00pm 16.7 14.7 7.1 53 4.9 W 7 13 4 7 - - 0.0
27/11:30am 15.9 13.9 6.9 55 4.5 W 7 19 4 10 - - 0.0
27/11:00am 14.8 12.6 6.4 57 4.1 W 7 17 4 9 - - 0.0
27/10:30am 13.9 11.2 5.8 58 3.9 W 9 17 5 9 - - 0.0
27/10:00am 13.3 11.2 5.9 61 3.6 W 6 13 3 7 - - 0.0
27/09:30am 12.4 10.1 5.8 64 3.2 WNW 7 15 4 8 - - 0.0
27/09:00am 11.4 9.1 5.5 67 2.8 W 7 19 4 10 - - 0.0
27/08:30am 11.4 8.7 5.5 67 2.8 W 9 19 5 10 - - 0.0
27/08:00am 10.6 8.4 6.0 73 2.2 W 7 17 4 9 - - 0.0
27/07:30am 9.9 7.8 5.9 76 1.9 W 6 13 3 7 - - 0.0
27/07:00am 9.4 7.3 5.9 79 1.6 W 6 9 3 5 - - 0.0
27/06:30am 9.1 7.0 5.7 79 1.6 W 6 9 3 5 - - 0.0
27/06:00am 9.0 6.6 5.4 78 1.7 W 7 9 4 5 - - 0.0
27/05:30am 8.9 6.6 5.5 79 1.6 W 7 11 4 6 - - 0.0
27/05:00am 8.7 6.3 5.4 80 1.5 W 7 13 4 7 - - 0.0
27/04:30am 8.3 5.9 5.4 82 1.3 W 7 11 4 6 - - 0.0
27/04:00am 8.5 6.2 5.8 83 1.3 W 7 11 4 6 - - 0.0
27/03:30am 9.0 6.8 6.1 82 1.4 W 7 11 4 6 - - 0.0
27/03:00am 9.3 7.1 6.4 82 1.4 W 7 19 4 10 - - 0.0
27/02:30am 9.9 7.4 6.6 80 1.6 WSW 9 19 5 10 - - 0.0
27/02:00am 10.1 8.0 6.8 80 1.6 WSW 7 17 4 9 - - 0.0
27/01:30am 10.3 7.9 6.8 79 1.7 WSW 9 17 5 9 - - 0.0
27/01:00am 10.4 7.9 6.7 78 1.8 WSW 9 17 5 9 - - 0.0
27/12:30am 10.8 8.8 7.1 78 1.8 WSW 7 15 4 8 - - 0.0
27/12:00am 11.3 9.5 8.0 80 1.6 WSW 7 15 4 8 - - 0.0
 
Date/Time
EDT
Temp
°C
App
Temp
°C
Dew
Point
Rel
Hum
%
Delta-T
°C
Wind Press
QNH
hPa
Press
MSL
hPa
Rain
since 9 am
mm
Dir
 
Spd
km/h
Gust
km/h
Spd
kts
Gust
kts
26/11:30pm 11.8 10.9 9.2 84 1.3 SW 4 9 2 5 - - 0.0
26/11:00pm 12.0 10.8 9.4 84 1.3 SSE 6 9 3 5 - - 0.0
26/10:30pm 12.0 10.8 9.4 84 1.3 S 6 9 3 5 - - 0.0
26/10:00pm 12.1 11.2 9.3 83 1.4 SSW 4 9 2 5 - - 0.0
26/09:30pm 12.2 11.0 9.4 83 1.4 SSW 6 13 3 7 - - 0.0
26/09:00pm 12.5 11.8 9.9 84 1.4 SW 4 9 2 5 - - 0.0

Other Formats:

Comma delimited format used in spreadsheet applications
http://www.bom.gov.au/fwo/IDV60801/IDV60801.94930.axf

JavaScript Object Notation format (JSON) in row-major order
http://www.bom.gov.au/fwo/IDV60801/IDV60801.94930.json